Meath Environmental Platform

Observations for Trim Patrick St

Time AQI Temp °C Hum % Pres Pa CO μg/m³ H₂S μg/m³ NO μg/m³ NO₂ μg/m³ O₃ μg/m³ SO₂ μg/m³ PM1 μg/m³ PM2.5 μg/m³ PM10 μg/m³
Wednesday 5 August 2026
21:35 2 15.5 64 75,676 0.07 2.7 2.89 9.24 60.36 0 2 5.54 6.1
21:34 2 15.5 64 75,719 0.08 3.67 2.89 10.19 61.08 0 2 6.27 6.9
21:33 2 15.5 64 75,733 0.06 4.19 2.92 10.12 59.5 0 2 6.28 6.91
21:32 2 15.5 64 75,739 0.06 4.37 2.95 11.37 62.19 0 2 5.52 6.08
21:31 2 15.5 64 75,721 0.06 3.64 2.93 11.32 58.89 0 2 6.26 6.89
21:30 2 15.6 64 75,721 0.07 4.58 2.89 11.15 61.92 0 2.86 7.02 7.72
21:29 2 15.6 64 75,709 0.07 5.21 2.88 13.81 60.07 0 2.86 7.03 7.73
21:28 2 15.6 64 75,676 0.07 4.79 2.88 11.67 57.22 0 2.86 7.75 8.53
21:27 2 15.6 64 75,637 0.07 5.21 2.88 12.69 59.52 0 2 5.54 6.09
21:26 2 15.6 64 75,585 0.08 4.84 2.92 12.38 60.59 0 2.86 7.02 7.72
21:25 2 15.6 63 75,544 0.06 5.1 2.88 12.86 58.12 0 2 5.57 6.12
21:24 2 15.7 64 75,493 0.04 4.79 2.91 12.29 59.67 0 2 6.3 6.93
21:23 2 15.7 64 75,444 0.05 4.58 2.89 11.46 61.79 0 2 5.56 6.12
21:22 2 15.7 63 75,399 0.04 4.97 2.88 11.53 60.29 0 2 6.32 6.95
21:21 2 15.7 63 75,367 0.04 4.66 2.88 11.67 60.12 0 3.71 7.79 8.57
21:20 2 15.8 63 75,336 0.01 4.82 2.83 12.14 60.31 0 2.86 7.07 7.77
21:19 2 15.8 63 75,300 0.02 4.76 2.85 12 58.82 0 2.86 7.05 7.76
21:18 2 15.8 63 75,267 0.02 5.13 2.8 12.65 59.38 0 2 6.33 6.96
21:17 2 15.8 63 75,222 0.03 4.61 2.82 11.94 61.16 0 2 6.33 6.96
21:15 2 15.9 63 75,161 0.02 4.68 2.84 11.38 60.07 0 2.86 6.34 6.98